Silver Bay, MN

12:27 PM CDT on March 28, 2017 (GMT -0500)
Silver Bay Municipal

Weather History for KBFW - March, 2014

Change the Weather History Date:

Thursday, March 27, 2014

  Actual Average Record
Temperature  
Mean Temperature 26 °F -  
Max Temperature 28 °F 36 °F 60 °F (2012)
Min Temperature 23 °F 18 °F -4 °F (2002)
Degree Days  
Heating Degree Days 40    
Moisture  
Dew Point 25 °F    
Average Humidity 94    
Maximum Humidity 100    
Minimum Humidity 80    
Precipitation  
Precipitation 0.28 in - - ()
Sea Level Pressure  
Sea Level Pressure 29.62 in    
Wind  
Wind Speed 7 mph (NNE)    
Max Wind Speed 12 mph    
Max Gust Speed 18 mph    
Visibility 4 miles    
Events Rain , Snow    
Averages and records for this station are not official NWS values.
T = Trace of Precipitation, MM = Missing Value Source: NWS Daily Summary

Daily Weather History Graph

Daily Weather History Graph

Search for Another Location

Airport or City:

Trip Planner

Search our weather history database for the weather conditions in past years. The results will help you decide how hot, cold, wet, or windy it might be!

Date:

Astronomy

Mar. 27, 2014 Rise Set
Actual Time 6:54 AM CDT 7:28 PM CDT
Civil Twilight 6:23 AM CDT 7:59 PM CDT
Nautical Twilight 5:47 AM CDT 8:35 PM CDT
Astronomical Twilight 5:09 AM CDT 9:13 PM CDT
Moon 4:59 AM CDT (3/27) 4:04 PM CDT (3/27)
Length of Visible Light 13h 35m
Length of Day
12h 33m
Waning Crescent, 13% of the Moon is Illuminated
Mar 27
Waning Crescent
Mar 30
New
Apr 7
First Quarter
Apr 15
Full
Apr 22
Last Quarter

Hourly Weather History & Observations

Time (CDT) Temp. Windchill Dew Point Humidity Pressure Visibility Wind Dir Wind Speed Gust Speed Precip Events Conditions
12:13 AM 23.0 °F 14.7 °F 21.2 °F 93% 29.69 in 10.0 mi NNE 6.9 mph - N/A   Clear
12:33 AM 24.8 °F 17.9 °F 21.2 °F 86% 29.67 in 10.0 mi NE 5.8 mph - N/A   Clear
12:53 AM 24.8 °F 16.9 °F 21.2 °F 86% 29.66 in 10.0 mi NE 6.9 mph - N/A   Clear
1:13 AM 24.8 °F 16.9 °F 21.2 °F 86% 29.65 in 10.0 mi NE 6.9 mph - N/A   Clear
1:33 AM 24.8 °F 16.1 °F 21.2 °F 86% 29.64 in 10.0 mi NE 8.1 mph - N/A   Clear
1:53 AM 24.8 °F 15.3 °F 21.2 °F 86% 29.63 in 10.0 mi NE 9.2 mph - N/A   Clear
2:13 AM 24.8 °F 16.1 °F 21.2 °F 86% 29.63 in 10.0 mi NE 8.1 mph - N/A   Clear
2:33 AM 24.8 °F 14.0 °F 21.2 °F 86% 29.62 in 10.0 mi NE 11.5 mph 16.1 mph N/A   Clear
2:53 AM 24.8 °F 19.1 °F 19.4 °F 80% 29.62 in 10.0 mi East 4.6 mph 18.4 mph N/A   Clear
3:13 AM 26.6 °F 20.0 °F 21.2 °F 80% 29.62 in 10.0 mi South 5.8 mph - N/A   Clear
3:33 AM 26.6 °F 20.0 °F 21.2 °F 80% 29.62 in 4.0 mi East 5.8 mph - N/A Snow Light Snow
3:53 AM 24.8 °F 16.9 °F 21.2 °F 86% 29.60 in 7.0 mi ENE 6.9 mph - N/A   Clear
4:13 AM 24.8 °F 16.1 °F 21.2 °F 86% 29.61 in 4.0 mi NE 8.1 mph - 0.01 in Snow Light Snow
4:33 AM 24.8 °F 16.1 °F 23.0 °F 93% 29.60 in 5.0 mi NE 8.1 mph - 0.01 in Snow Light Snow
4:53 AM 24.8 °F 16.1 °F 23.0 °F 93% 29.60 in 4.0 mi NE 8.1 mph - N/A Snow Light Snow
5:13 AM 24.8 °F 15.3 °F 24.8 °F 100% 29.60 in 3.0 mi NNE 9.2 mph - N/A Snow Light Snow
5:33 AM 24.8 °F 15.3 °F 24.8 °F 100% 29.59 in 1.8 mi NNE 9.2 mph - 0.01 in Snow Light Snow
5:53 AM 24.8 °F 16.9 °F 24.8 °F 100% 29.59 in 1.5 mi NE 6.9 mph - 0.01 in Snow Light Snow
6:13 AM 24.8 °F 16.1 °F 24.8 °F 100% 29.59 in 1.0 mi NNE 8.1 mph - 0.02 in Snow Snow
6:33 AM 24.8 °F 17.9 °F 24.8 °F 100% 29.59 in 1.0 mi NE 5.8 mph - 0.02 in Snow Light Snow
6:53 AM 24.8 °F 16.9 °F 24.8 °F 100% 29.59 in 1.2 mi NNE 6.9 mph - N/A Snow Snow
7:13 AM 24.8 °F 15.3 °F 24.8 °F 100% 29.59 in 1.5 mi NE 9.2 mph - N/A Snow Light Snow
7:33 AM 24.8 °F 17.9 °F 24.8 °F 100% 29.60 in 1.2 mi NNE 5.8 mph - 0.01 in Snow Light Snow
7:53 AM 24.8 °F 16.1 °F 24.8 °F 100% 29.59 in 0.5 mi NNE 8.1 mph - 0.01 in Snow Snow
8:13 AM 24.8 °F 16.1 °F 24.8 °F 100% 29.60 in 0.8 mi NNE 8.1 mph - 0.01 in Snow Light Snow
8:33 AM 24.8 °F 16.9 °F 24.8 °F 100% 29.60 in 0.8 mi NNE 6.9 mph - 0.02 in Snow Light Snow
8:53 AM 24.8 °F 16.9 °F 24.8 °F 100% 29.59 in 1.0 mi NNE 6.9 mph - 0.01 in Snow Light Snow
9:13 AM 26.6 °F 17.5 °F 24.8 °F 93% 29.60 in 2.0 mi NNE 9.2 mph - 0.02 in Snow Light Snow
9:33 AM 26.6 °F 16.8 °F 26.6 °F 100% 29.60 in 1.0 mi NE 10.4 mph - 0.03 in Snow Light Snow
9:53 AM 26.6 °F 19.1 °F 26.6 °F 100% 29.60 in 1.2 mi NNE 6.9 mph - N/A Snow Light Snow
10:13 AM 26.6 °F 19.1 °F 26.6 °F 100% 29.60 in 1.2 mi NNE 6.9 mph - 0.01 in Snow Light Snow
10:33 AM 28.4 °F 19.1 °F 26.6 °F 93% 29.60 in 1.0 mi NNE 10.4 mph - 0.02 in Snow Light Snow
10:53 AM 26.6 °F 19.1 °F 26.6 °F 100% 29.59 in 1.8 mi NNE 6.9 mph - N/A Snow Light Snow
11:13 AM 28.4 °F 22.2 °F 26.6 °F 93% 29.59 in 1.5 mi NNE 5.8 mph - 0.01 in Snow Light Snow
11:33 AM 28.4 °F 21.2 °F 26.6 °F 93% 29.58 in 1.2 mi NNE 6.9 mph - 0.01 in Snow Light Snow
11:53 AM 28.4 °F 22.2 °F 28.4 °F 100% 29.59 in 1.5 mi NE 5.8 mph - N/A Snow Light Snow
12:13 PM 28.4 °F 21.2 °F 26.6 °F 93% 29.59 in 1.5 mi North 6.9 mph - N/A Snow Light Snow
12:33 PM 28.4 °F 22.2 °F 28.4 °F 100% 29.59 in 0.8 mi NNE 5.8 mph - 0.01 in Snow Light Snow
12:53 PM 28.4 °F 21.2 °F 28.4 °F 100% 29.59 in 1.0 mi NNE 6.9 mph - N/A Snow Light Snow
1:13 PM 28.4 °F 21.2 °F 28.4 °F 100% 29.58 in 1.0 mi NNE 6.9 mph - 0.01 in Snow Light Snow
1:33 PM 28.4 °F 21.2 °F 28.4 °F 100% 29.58 in 0.5 mi NNE 6.9 mph - 0.01 in Snow Light Snow
1:53 PM 28.4 °F 22.2 °F 28.4 °F 100% 29.58 in 0.5 mi NNE 5.8 mph - N/A Snow Light Snow
2:13 PM 28.4 °F 21.2 °F 28.4 °F 100% 29.59 in 0.5 mi NNE 6.9 mph - 0.02 in Snow Light Snow
2:33 PM 28.4 °F 21.2 °F 28.4 °F 100% 29.60 in 1.2 mi ENE 6.9 mph - 0.04 in Rain Light Freezing Rain
2:53 PM 28.4 °F 19.1 °F 28.4 °F 100% 29.59 in 0.8 mi NE 10.4 mph 16.1 mph N/A Rain Light Freezing Rain
3:13 PM 28.4 °F 18.5 °F 26.6 °F 93% 29.58 in 0.8 mi NE 11.5 mph 16.1 mph N/A Snow Light Snow
3:33 PM 26.6 °F 20.0 °F 26.6 °F 100% 29.58 in 1.0 mi NE 5.8 mph - 0.01 in Snow Light Snow
3:53 PM 28.4 °F 23.3 °F 26.6 °F 93% 29.59 in 0.8 mi NE 4.6 mph - 0.01 in Snow Light Snow
4:13 PM 28.4 °F 23.3 °F 28.4 °F 100% 29.59 in 0.5 mi NE 4.6 mph - 0.02 in Snow Snow
4:33 PM 28.4 °F 23.3 °F 28.4 °F 100% 29.59 in 1.0 mi NE 4.6 mph - 0.03 in   Unknown
4:53 PM 28.4 °F 22.2 °F 28.4 °F 100% 29.60 in 1.5 mi NE 5.8 mph - N/A Snow Light Snow
5:13 PM 28.4 °F 24.6 °F 28.4 °F 100% 29.61 in 1.2 mi NNE 3.5 mph - 0.02 in   Unknown
5:33 PM 28.4 °F 23.3 °F 28.4 °F 100% 29.61 in 1.2 mi NNE 4.6 mph - 0.03 in Snow Light Snow
5:53 PM 28.4 °F 23.3 °F 28.4 °F 100% 29.62 in 1.5 mi North 4.6 mph - N/A Snow Light Snow
6:13 PM 28.4 °F 23.3 °F 28.4 °F 100% 29.62 in 3.0 mi NNE 4.6 mph - 0.01 in Snow Light Snow
6:33 PM 26.6 °F 21.2 °F 26.6 °F 100% 29.63 in 4.0 mi NE 4.6 mph - 0.02 in Snow Light Snow
6:53 PM 26.6 °F - 26.6 °F 100% 29.64 in 4.0 mi Calm Calm - N/A   Scattered Clouds
7:13 PM 26.6 °F - 26.6 °F 100% 29.64 in 7.0 mi Calm Calm - N/A   Scattered Clouds
7:33 PM 26.6 °F - 26.6 °F 100% 29.65 in 5.0 mi Calm Calm - N/A   Scattered Clouds
7:53 PM 28.4 °F 22.2 °F 26.6 °F 93% 29.65 in 10.0 mi North 5.8 mph - N/A   Scattered Clouds
8:13 PM 28.4 °F 21.2 °F 24.8 °F 86% 29.66 in 10.0 mi North 6.9 mph - N/A   Scattered Clouds
8:33 PM 28.4 °F 21.2 °F 24.8 °F 86% 29.66 in 10.0 mi North 6.9 mph - N/A   Scattered Clouds
8:53 PM 26.6 °F 20.0 °F 24.8 °F 93% 29.67 in 10.0 mi North 5.8 mph - N/A   Scattered Clouds
9:13 PM 26.6 °F 19.1 °F 24.8 °F 93% 29.68 in 10.0 mi North 6.9 mph - N/A   Scattered Clouds
9:33 PM 26.6 °F 21.2 °F 24.8 °F 93% 29.69 in 10.0 mi North 4.6 mph - N/A   Clear
9:53 PM 26.6 °F 19.1 °F 24.8 °F 93% 29.70 in 10.0 mi NNW 6.9 mph - N/A   Clear
10:13 PM 26.6 °F 17.5 °F 23.0 °F 86% 29.70 in 10.0 mi North 9.2 mph - N/A   Clear
10:33 PM 26.6 °F 18.2 °F 23.0 °F 86% 29.70 in 10.0 mi North 8.1 mph - N/A   Clear
10:53 PM 26.6 °F 22.6 °F 21.2 °F 80% 29.71 in 10.0 mi North 3.5 mph - N/A   Clear
11:13 PM 26.6 °F 21.2 °F 21.2 °F 80% 29.71 in 10.0 mi NNW 4.6 mph - N/A   Clear
11:33 PM 24.8 °F 19.1 °F 21.2 °F 86% 29.71 in 10.0 mi NNW 4.6 mph - N/A   Clear
11:53 PM 24.8 °F 20.5 °F 21.2 °F 86% 29.72 in 10.0 mi North 3.5 mph - N/A   Clear